Date,TemperatureHighF,TemperatureAvgF,TemperatureLowF,DewpointHighF,DewpointAvgF,DewpointLowF,HumidityHigh,HumidityAvg,HumidityLow,PressureMaxIn,PressureMinIn,WindSpeedMaxMPH,WindSpeedAvgMPH,GustSpeedMaxMPH,PrecipitationSumIn
2013-2-1,24,5,-8,18,-2,-12,87,72,60,0.00,40.00,13,7,18,0.00
2013-2-2,27,20,15,22,15,7,99,82,60,0.00,40.00,16,8,22,0.01
2013-2-3,33,24,17,31,18,13,99,76,55,0.00,40.00,21,9,35,0.02
2013-2-4,26,22,14,25,20,14,99,91,78,0.00,40.00,20,7,24,0.00
2013-2-5,40,30,17,36,28,17,99,92,76,0.00,40.00,16,6,23,0.00
2013-2-6,44,33,23,38,31,22,99,92,77,0.00,40.00,10,3,14,0.00
2013-2-7,39,34,29,37,33,29,99,98,91,0.00,40.00,19,9,26,1.71
2013-2-8,30,28,26,29,27,26,99,97,89,0.00,40.00,16,7,22,0.00
2013-2-9,35,31,27,35,31,27,99,99,98,0.00,40.00,11,8,22,0.10
2013-2-10,48,37,33,47,36,25,99,94,75,0.00,40.00,29,12,40,0.47
2013-2-11,33,30,27,26,24,22,85,77,72,0.00,40.00,29,17,39,0.34
2013-2-12,44,33,22,30,26,22,99,78,49,0.00,40.00,14,6,19,0.00
2013-2-13,50,36,25,34,30,25,99,80,49,0.00,40.00,12,5,17,0.00
2013-2-14,43,36,25,34,30,17,93,80,63,0.00,40.00,19,12,33,0.08
2013-2-15,27,22,17,17,14,7,84,69,52,0.00,40.00,19,9,27,0.00
2013-2-16,35,22,11,21,15,10,99,76,48,0.00,40.00,7,3,14,0.00
2013-2-17,44,31,18,28,23,17,97,76,50,0.00,40.00,12,6,21,0.00
2013-2-18,44,31,17,36,26,9,99,81,68,0.00,40.00,24,10,42,0.11
2013-2-19,22,15,6,11,5,-1,80,64,50,0.00,40.00,26,15,37,0.00
2013-2-20,24,14,1,14,3,-4,80,63,45,0.00,40.00,14,5,18,0.00
2013-2-21,26,22,17,25,17,12,99,84,64,0.00,40.00,21,12,30,0.14
2013-2-22,29,25,22,26,22,19,99,91,79,0.00,40.00,17,8,26,0.31
2013-2-23,33,23,10,21,17,10,99,80,56,0.00,40.00,11,5,15,0.00
2013-2-24,38,26,10,31,22,10,99,85,62,0.00,40.00,5,2,8,0.00
2013-2-25,42,34,27,36,31,27,99,90,67,0.00,40.00,11,4,14,0.00
2013-2-26,33,31,29,32,30,29,99,98,90,0.00,40.00,25,16,33,7.65
2013-2-27,30,28,25,30,28,24,99,99,96,0.00,40.00,16,13,26,2.71
2013-2-28,32,27,22,28,26,22,99,94,79,0.00,40.00,17,11,22,0.17